Starlink 36096

operational
NORAD ID: 66949 Int'l Des: 2025-286 Owner: SPXS Country: US Constellation: starlink
LEOCIRCULAR

About Starlink 36096

Description loading...

Live Position

Loading 3D Globe...

Upcoming Passes

Altitude History

Altitude vs Time

uPlot chart will show altitude changes over time

Two-Line Element Set

1 66949U 25286AA 25347.25002315 -.01306792 52946-3 -27650-2 0 9997
2 66949 53.1566 48.0876 0000980 71.6199 124.2994 15.98165076 2073
Epoch: Dec 13, 2025 • Age: 20 hours

Current Status

Altitude 298.1 km
Velocity 7.73 km/s
Sub-Earth Point -37.81°S, 151.24°E
Launch Date Dec 7, 2025
Age 6 days
Type internet

Technical Details

Classification Payload
Mass 575.00 kg
Dry Mass 530.00 kg
Total Mass 575.00 kg
Length 0.30 m
Diameter 4.10 m
Span 29.00 m
Shape Box + pan
Manufacturer SPXS
Bus Type Starlink V2MO
Phase Status In Orbit
Owner/State SPXS/US

Large Constellations

Loading constellations...